Year,Month,Day,Hour,Minute,Value (Times are PST for temperature in C)
2008,07,23,00,00,14.20
2008,07,23,00,01,14.20
2008,07,23,00,02,14.20
2008,07,23,00,03,14.20
2008,07,23,00,04,14.20
2008,07,23,00,05,14.20
2008,07,23,00,06,14.20
2008,07,23,00,07,14.20
2008,07,23,00,08,14.20
2008,07,23,00,09,14.20
2008,07,23,00,10,14.20
2008,07,23,00,11,14.20
2008,07,23,00,12,14.20
2008,07,23,00,13,14.20
2008,07,23,00,14,14.20
2008,07,23,00,15,14.20
2008,07,23,00,16,14.20
2008,07,23,00,17,14.20
2008,07,23,00,18,14.20
2008,07,23,00,19,14.20
2008,07,23,00,20,14.20
2008,07,23,00,21,14.20
2008,07,23,00,22,14.20
2008,07,23,00,23,14.20
2008,07,23,00,24,14.20
2008,07,23,00,25,14.20
2008,07,23,00,26,14.20
2008,07,23,00,27,14.20
2008,07,23,00,28,14.20
2008,07,23,00,29,14.20
2008,07,23,00,30,14.20
2008,07,23,00,31,14.20
2008,07,23,00,32,14.20
2008,07,23,00,33,14.20
2008,07,23,00,34,14.20
2008,07,23,00,35,14.20
2008,07,23,00,36,14.20
2008,07,23,00,37,14.20
2008,07,23,00,38,14.20
2008,07,23,00,39,14.20
2008,07,23,00,40,14.20
2008,07,23,00,41,14.20
2008,07,23,00,42,14.20
2008,07,23,00,43,14.20
2008,07,23,00,44,14.20
2008,07,23,00,45,14.20
2008,07,23,00,46,14.20
2008,07,23,00,47,14.20
2008,07,23,00,48,14.20
2008,07,23,00,49,14.20
2008,07,23,00,50,14.20
2008,07,23,00,51,14.20
2008,07,23,00,52,14.20
2008,07,23,00,53,14.20
2008,07,23,00,54,14.20
2008,07,23,00,55,14.20
2008,07,23,00,56,14.20
2008,07,23,00,57,14.20
2008,07,23,00,58,14.20
2008,07,23,00,59,14.20
2008,07,23,01,00,14.20
2008,07,23,01,01,14.30
2008,07,23,01,02,14.20
2008,07,23,01,03,14.20
2008,07,23,01,04,14.20
2008,07,23,01,05,14.20
2008,07,23,01,06,14.20
2008,07,23,01,07,14.20
2008,07,23,01,08,14.20
2008,07,23,01,09,14.20
2008,07,23,01,10,14.20
2008,07,23,01,11,14.20
2008,07,23,01,12,14.20
2008,07,23,01,13,14.10
2008,07,23,01,14,14.10
2008,07,23,01,15,14.10
2008,07,23,01,16,14.10
2008,07,23,01,17,14.10
2008,07,23,01,18,14.10
2008,07,23,01,19,14.00
2008,07,23,01,20,14.00
2008,07,23,01,21,14.00
2008,07,23,01,22,13.90
2008,07,23,01,23,13.90
2008,07,23,01,24,13.90
2008,07,23,01,25,13.90
2008,07,23,01,26,13.90
2008,07,23,01,27,13.90
2008,07,23,01,28,13.90
2008,07,23,01,29,13.90
2008,07,23,01,30,13.90
2008,07,23,01,31,13.90
2008,07,23,01,32,13.90
2008,07,23,01,33,13.90
2008,07,23,01,34,14.00
2008,07,23,01,35,14.00
2008,07,23,01,36,13.90
2008,07,23,01,37,13.90
2008,07,23,01,38,13.90
2008,07,23,01,39,13.90
2008,07,23,01,40,13.90
2008,07,23,01,41,13.90
2008,07,23,01,42,13.90
2008,07,23,01,43,13.90
2008,07,23,01,44,13.90
2008,07,23,01,45,13.80
2008,07,23,01,46,13.80
2008,07,23,01,47,13.80
2008,07,23,01,48,13.80
2008,07,23,01,49,13.80
2008,07,23,01,50,13.80
2008,07,23,01,51,13.80
2008,07,23,01,52,13.80
2008,07,23,01,53,13.80
2008,07,23,01,54,13.80
2008,07,23,01,55,13.80
2008,07,23,01,56,13.80
2008,07,23,01,57,13.80
2008,07,23,01,58,13.80
2008,07,23,01,59,13.80
2008,07,23,02,00,13.80
2008,07,23,02,01,13.80
2008,07,23,02,02,13.80
2008,07,23,02,03,13.80
2008,07,23,02,04,13.80
2008,07,23,02,05,13.80
2008,07,23,02,06,13.80
2008,07,23,02,07,13.80
2008,07,23,02,08,13.80
2008,07,23,02,09,13.80
2008,07,23,02,10,13.70
2008,07,23,02,11,13.70
2008,07,23,02,12,13.70
2008,07,23,02,13,13.70
2008,07,23,02,14,13.70
2008,07,23,02,15,13.70
2008,07,23,02,16,13.70
2008,07,23,02,17,13.70
2008,07,23,02,18,13.70
2008,07,23,02,19,13.70
2008,07,23,02,20,13.70
2008,07,23,02,21,13.70
2008,07,23,02,22,13.70
2008,07,23,02,23,13.70
2008,07,23,02,24,13.70
2008,07,23,02,25,13.70
2008,07,23,02,26,13.70
2008,07,23,02,27,13.70
2008,07,23,02,28,13.70
2008,07,23,02,29,13.70
2008,07,23,02,30,13.70
2008,07,23,02,31,13.70
2008,07,23,02,32,13.70
2008,07,23,02,33,13.70
2008,07,23,02,34,13.60
2008,07,23,02,35,13.60
2008,07,23,02,36,13.60
2008,07,23,02,37,13.60
2008,07,23,02,38,13.60
2008,07,23,02,39,13.60
2008,07,23,02,40,13.60
2008,07,23,02,41,13.60
2008,07,23,02,42,13.60
2008,07,23,02,43,13.60
2008,07,23,02,44,13.60
2008,07,23,02,45,13.60
2008,07,23,02,46,13.60
2008,07,23,02,47,13.60
2008,07,23,02,48,13.60
2008,07,23,02,49,13.60
2008,07,23,02,50,13.60
2008,07,23,02,51,13.60
2008,07,23,02,52,13.50
2008,07,23,02,53,13.50
2008,07,23,02,54,13.50
2008,07,23,02,55,13.50
2008,07,23,02,56,13.40
2008,07,23,02,57,13.40
2008,07,23,02,58,13.40
2008,07,23,02,59,13.40
2008,07,23,03,00,13.40
2008,07,23,03,01,13.40
2008,07,23,03,02,13.40
2008,07,23,03,03,13.40
2008,07,23,03,04,13.40
2008,07,23,03,05,13.40
2008,07,23,03,06,13.40
2008,07,23,03,07,13.40
2008,07,23,03,08,13.40
2008,07,23,03,09,13.30
2008,07,23,03,10,13.30
2008,07,23,03,11,13.30
2008,07,23,03,12,13.30
2008,07,23,03,13,13.30
2008,07,23,03,14,13.30
2008,07,23,03,15,13.30
2008,07,23,03,16,13.30
2008,07,23,03,17,13.30
2008,07,23,03,18,13.20
2008,07,23,03,19,13.20
2008,07,23,03,20,13.20
2008,07,23,03,21,13.20
2008,07,23,03,22,13.20
2008,07,23,03,23,13.20
2008,07,23,03,24,13.20
2008,07,23,03,25,13.10
2008,07,23,03,26,13.10
2008,07,23,03,27,13.10
2008,07,23,03,28,13.10
2008,07,23,03,29,13.10
2008,07,23,03,30,13.10
2008,07,23,03,31,13.10
2008,07,23,03,32,13.10
2008,07,23,03,33,13.20
2008,07,23,03,34,13.20
2008,07,23,03,35,13.20
2008,07,23,03,36,13.20
2008,07,23,03,37,13.20
2008,07,23,03,38,13.20
2008,07,23,03,39,13.20
2008,07,23,03,40,13.20
2008,07,23,03,41,13.20
2008,07,23,03,42,13.20
2008,07,23,03,43,13.20
2008,07,23,03,44,13.10
2008,07,23,03,45,13.10
2008,07,23,03,46,13.10
2008,07,23,03,47,13.10
2008,07,23,03,48,13.10
2008,07,23,03,49,13.10
2008,07,23,03,50,13.10
2008,07,23,03,51,13.10
2008,07,23,03,52,13.10
2008,07,23,03,53,13.10
2008,07,23,03,54,13.10
2008,07,23,03,55,13.10
2008,07,23,03,56,13.10
2008,07,23,03,57,13.10
2008,07,23,03,58,13.10
2008,07,23,03,59,13.10
2008,07,23,04,00,13.10
2008,07,23,04,01,13.10
2008,07,23,04,02,13.10
2008,07,23,04,03,13.10
2008,07,23,04,04,13.00
2008,07,23,04,05,13.00
2008,07,23,04,06,13.00
2008,07,23,04,07,13.00
2008,07,23,04,08,13.00
2008,07,23,04,09,12.90
2008,07,23,04,10,12.90
2008,07,23,04,11,12.90
2008,07,23,04,12,12.90
2008,07,23,04,13,12.90
2008,07,23,04,14,12.90
2008,07,23,04,15,12.90
2008,07,23,04,16,12.90
2008,07,23,04,17,12.90
2008,07,23,04,18,12.90
2008,07,23,04,19,12.90
2008,07,23,04,20,12.90
2008,07,23,04,21,12.90
2008,07,23,04,22,12.90
2008,07,23,04,23,12.90
2008,07,23,04,24,12.80
2008,07,23,04,25,12.90
2008,07,23,04,26,12.90
2008,07,23,04,27,12.90
2008,07,23,04,28,12.90
2008,07,23,04,29,12.90
2008,07,23,04,30,12.90
2008,07,23,04,31,12.90
2008,07,23,04,32,12.90
2008,07,23,04,33,12.90
2008,07,23,04,34,12.90
2008,07,23,04,35,12.90
2008,07,23,04,36,12.90
2008,07,23,04,37,12.90
2008,07,23,04,38,12.80
2008,07,23,04,39,12.80
2008,07,23,04,40,12.80
2008,07,23,04,41,12.80
2008,07,23,04,42,12.80
2008,07,23,04,43,12.80
2008,07,23,04,44,12.80
2008,07,23,04,45,12.80
2008,07,23,04,46,12.80
2008,07,23,04,47,12.80
2008,07,23,04,48,12.80
2008,07,23,04,49,12.80
2008,07,23,04,50,12.80
2008,07,23,04,51,12.80
2008,07,23,04,52,12.80
2008,07,23,04,53,12.80
2008,07,23,04,54,12.80
2008,07,23,04,55,12.80
2008,07,23,04,56,12.80
2008,07,23,04,57,12.80
2008,07,23,04,58,12.80
2008,07,23,04,59,12.80
2008,07,23,05,00,12.70
2008,07,23,05,01,12.70
2008,07,23,05,02,12.70
2008,07,23,05,03,12.70
2008,07,23,05,04,12.70
2008,07,23,05,05,12.60
2008,07,23,05,06,12.60
2008,07,23,05,07,12.60
2008,07,23,05,08,12.60
2008,07,23,05,09,12.60
2008,07,23,05,10,12.60
2008,07,23,05,11,12.60
2008,07,23,05,12,12.60
2008,07,23,05,13,12.50
2008,07,23,05,14,12.50
2008,07,23,05,15,12.50
2008,07,23,05,16,12.50
2008,07,23,05,17,12.50
2008,07,23,05,18,12.50
2008,07,23,05,19,12.50
2008,07,23,05,20,12.40
2008,07,23,05,21,12.40
2008,07,23,05,22,12.40
2008,07,23,05,23,12.40
2008,07,23,05,24,12.40
2008,07,23,05,25,12.40
2008,07,23,05,26,12.40
2008,07,23,05,27,12.40
2008,07,23,05,28,12.40
2008,07,23,05,29,12.40
2008,07,23,05,30,12.30
2008,07,23,05,31,12.30
2008,07,23,05,32,12.30
2008,07,23,05,33,12.30
2008,07,23,05,34,12.30
2008,07,23,05,35,12.30
2008,07,23,05,36,12.30
2008,07,23,05,37,12.30
2008,07,23,05,38,12.30
2008,07,23,05,39,12.30
2008,07,23,05,40,12.30
2008,07,23,05,41,12.30
2008,07,23,05,42,12.30
2008,07,23,05,43,12.30
2008,07,23,05,44,12.20
2008,07,23,05,45,12.20
2008,07,23,05,46,12.20
2008,07,23,05,47,12.20
2008,07,23,05,48,12.20
2008,07,23,05,49,12.10
2008,07,23,05,50,12.20
2008,07,23,05,51,12.10
2008,07,23,05,52,12.10
2008,07,23,05,53,12.10
2008,07,23,05,54,12.10
2008,07,23,05,55,12.10
2008,07,23,05,56,12.10
2008,07,23,05,57,12.10
2008,07,23,05,58,12.10
2008,07,23,05,59,12.10
2008,07,23,06,00,12.10
2008,07,23,06,01,12.10
2008,07,23,06,02,12.10
2008,07,23,06,03,12.10
2008,07,23,06,04,12.10
2008,07,23,06,05,12.10
2008,07,23,06,06,12.10
2008,07,23,06,07,12.10
2008,07,23,06,08,12.00
2008,07,23,06,09,12.00
2008,07,23,06,10,12.00
2008,07,23,06,11,11.90
2008,07,23,06,12,11.90
2008,07,23,06,13,11.90
2008,07,23,06,14,11.90
2008,07,23,06,15,11.90
2008,07,23,06,16,11.90
2008,07,23,06,17,11.90
2008,07,23,06,18,11.90
2008,07,23,06,19,11.90
2008,07,23,06,20,11.90
2008,07,23,06,21,11.90
2008,07,23,06,22,11.90
2008,07,23,06,23,11.90
2008,07,23,06,24,11.90
2008,07,23,06,25,11.90
2008,07,23,06,26,11.90
2008,07,23,06,27,11.90
2008,07,23,06,28,11.80
2008,07,23,06,29,11.80
2008,07,23,06,30,11.80
2008,07,23,06,31,11.80
2008,07,23,06,32,11.80
2008,07,23,06,33,11.80
2008,07,23,06,34,11.80
2008,07,23,06,35,11.80
2008,07,23,06,36,11.80
2008,07,23,06,37,11.80
2008,07,23,06,38,11.90
2008,07,23,06,39,11.90
2008,07,23,06,40,11.90
2008,07,23,06,41,11.90
2008,07,23,06,42,11.90
2008,07,23,06,43,11.90
2008,07,23,06,44,11.90
2008,07,23,06,45,11.90
2008,07,23,06,46,11.90
2008,07,23,06,47,11.90
2008,07,23,06,48,11.90
2008,07,23,06,49,12.00
2008,07,23,06,50,12.00
2008,07,23,06,51,12.00
2008,07,23,06,52,12.00
2008,07,23,06,53,12.00
2008,07,23,06,54,12.10
2008,07,23,06,55,12.10
2008,07,23,06,56,12.10
2008,07,23,06,57,12.10
2008,07,23,06,58,12.10
2008,07,23,06,59,12.20
2008,07,23,07,00,12.20
2008,07,23,07,01,12.20
2008,07,23,07,02,12.20
2008,07,23,07,03,12.20
2008,07,23,07,04,12.30
2008,07,23,07,05,12.30
2008,07,23,07,06,12.30
2008,07,23,07,07,12.30
2008,07,23,07,08,12.30
2008,07,23,07,09,12.30
2008,07,23,07,10,12.30
2008,07,23,07,11,12.30
2008,07,23,07,12,12.30
2008,07,23,07,13,12.30
2008,07,23,07,14,12.30
2008,07,23,07,15,12.30
2008,07,23,07,16,12.30
2008,07,23,07,17,12.40
2008,07,23,07,18,12.40
2008,07,23,07,19,12.50
2008,07,23,07,20,12.50
2008,07,23,07,21,12.60
2008,07,23,07,22,12.60
2008,07,23,07,23,12.70
2008,07,23,07,24,12.70
2008,07,23,07,25,12.80
2008,07,23,07,26,12.80
2008,07,23,07,27,12.90
2008,07,23,07,28,12.90
2008,07,23,07,29,13.00
2008,07,23,07,30,13.00
2008,07,23,07,31,13.10
2008,07,23,07,32,13.10
2008,07,23,07,33,13.20
2008,07,23,07,34,13.20
2008,07,23,07,35,13.30
2008,07,23,07,36,13.30
2008,07,23,07,37,13.40
2008,07,23,07,38,13.40
2008,07,23,07,39,13.40
2008,07,23,07,40,13.50
2008,07,23,07,41,13.50
2008,07,23,07,42,13.50
2008,07,23,07,43,13.60
2008,07,23,07,44,13.60
2008,07,23,07,45,13.60
2008,07,23,07,46,13.60
2008,07,23,07,47,13.60
2008,07,23,07,48,13.60
2008,07,23,07,49,13.70
2008,07,23,07,50,13.70
2008,07,23,07,51,13.70
2008,07,23,07,52,13.70
2008,07,23,07,53,13.70
2008,07,23,07,54,13.70
2008,07,23,07,55,13.80
2008,07,23,07,56,13.80
2008,07,23,07,57,13.80
2008,07,23,07,58,13.80
2008,07,23,07,59,13.80
2008,07,23,08,00,13.90
2008,07,23,08,01,14.00
2008,07,23,08,02,14.00
2008,07,23,08,03,14.10
2008,07,23,08,04,14.20
2008,07,23,08,05,14.30
2008,07,23,08,06,14.40
2008,07,23,08,07,14.50
2008,07,23,08,08,14.60
2008,07,23,08,09,14.70
2008,07,23,08,10,14.80
2008,07,23,08,11,15.00
2008,07,23,08,12,15.00
2008,07,23,08,13,15.00
2008,07,23,08,14,15.00
2008,07,23,08,15,15.00
2008,07,23,08,16,15.00
2008,07,23,08,17,15.00
2008,07,23,08,18,15.00
2008,07,23,08,19,15.00
2008,07,23,08,20,15.00
2008,07,23,08,21,15.00
2008,07,23,08,22,15.00
2008,07,23,08,23,15.00
2008,07,23,08,24,15.00
2008,07,23,08,25,15.00
2008,07,23,08,26,15.10
2008,07,23,08,27,15.20
2008,07,23,08,28,15.20
2008,07,23,08,29,15.20
2008,07,23,08,30,15.30
2008,07,23,08,31,15.30
2008,07,23,08,32,15.30
2008,07,23,08,33,15.20
2008,07,23,08,34,15.20
2008,07,23,08,35,15.20
2008,07,23,08,36,15.20
2008,07,23,08,37,15.20
2008,07,23,08,38,15.20
2008,07,23,08,39,15.30
2008,07,23,08,40,15.30
2008,07,23,08,41,15.30
2008,07,23,08,42,15.30
2008,07,23,08,43,15.30
2008,07,23,08,44,15.30
2008,07,23,08,45,15.30
2008,07,23,08,46,15.40
2008,07,23,08,47,15.40
2008,07,23,08,48,15.40
2008,07,23,08,49,15.40
2008,07,23,08,50,15.50
2008,07,23,08,51,15.60
2008,07,23,08,52,15.60
2008,07,23,08,53,15.60
2008,07,23,08,54,15.70
2008,07,23,08,55,15.80
2008,07,23,08,56,15.90
2008,07,23,08,57,16.00
2008,07,23,08,58,16.10
2008,07,23,08,59,16.30
2008,07,23,09,00,16.40
2008,07,23,09,01,16.40
2008,07,23,09,02,16.50
2008,07,23,09,03,16.60
2008,07,23,09,04,16.60
2008,07,23,09,05,16.60
2008,07,23,09,06,16.60
2008,07,23,09,07,16.60
2008,07,23,09,08,16.70
2008,07,23,09,09,16.70
2008,07,23,09,10,16.70
2008,07,23,09,11,16.70
2008,07,23,09,12,16.70
2008,07,23,09,13,16.60
2008,07,23,09,14,16.60
2008,07,23,09,15,16.60
2008,07,23,09,16,16.60
2008,07,23,09,17,16.60
2008,07,23,09,18,16.60
2008,07,23,09,19,16.50
2008,07,23,09,20,16.50
2008,07,23,09,21,16.40
2008,07,23,09,22,16.30
2008,07,23,09,23,16.20
2008,07,23,09,24,16.20
2008,07,23,09,25,16.10
2008,07,23,09,26,16.10
2008,07,23,09,27,16.00
2008,07,23,09,28,15.90
2008,07,23,09,29,15.90
2008,07,23,09,30,15.90
2008,07,23,09,31,15.90
2008,07,23,09,32,15.90
2008,07,23,09,33,16.00
2008,07,23,09,34,16.00
2008,07,23,09,35,16.10
2008,07,23,09,36,16.10
2008,07,23,09,37,16.10
2008,07,23,09,38,16.10
2008,07,23,09,39,16.20
2008,07,23,09,40,16.20
2008,07,23,09,41,16.20
2008,07,23,09,42,16.20
2008,07,23,09,43,16.30
2008,07,23,09,44,16.20
2008,07,23,09,45,16.20
2008,07,23,09,46,16.30
2008,07,23,09,47,16.30
2008,07,23,09,48,16.40
2008,07,23,09,49,16.40
2008,07,23,09,50,16.40
2008,07,23,09,51,16.40
2008,07,23,09,52,16.50
2008,07,23,09,53,16.50
2008,07,23,09,54,16.60
2008,07,23,09,55,16.60
2008,07,23,09,56,16.60
2008,07,23,09,57,16.60
2008,07,23,09,58,16.60
2008,07,23,09,59,16.50
2008,07,23,10,00,16.50
2008,07,23,10,01,16.50
2008,07,23,10,02,16.50
2008,07,23,10,03,16.50
2008,07,23,10,04,16.50
2008,07,23,10,05,16.50
2008,07,23,10,06,16.50
2008,07,23,10,07,16.50
2008,07,23,10,08,16.60
2008,07,23,10,09,16.60
2008,07,23,10,10,16.60
2008,07,23,10,11,16.50
2008,07,23,10,12,16.50
2008,07,23,10,13,16.50
2008,07,23,10,14,16.60
2008,07,23,10,15,16.50
2008,07,23,10,16,16.60
2008,07,23,10,17,16.60
2008,07,23,10,18,16.60
2008,07,23,10,19,16.70
2008,07,23,10,20,16.70
2008,07,23,10,21,16.70
2008,07,23,10,22,16.80
2008,07,23,10,23,16.80
2008,07,23,10,24,16.80
2008,07,23,10,25,16.90
2008,07,23,10,26,16.90
2008,07,23,10,27,16.90
2008,07,23,10,28,16.90
2008,07,23,10,29,16.90
2008,07,23,10,30,17.00
2008,07,23,10,31,17.00
2008,07,23,10,32,17.00
2008,07,23,10,33,17.00
2008,07,23,10,34,17.00
2008,07,23,10,35,17.00
2008,07,23,10,36,16.90
2008,07,23,10,37,16.90
2008,07,23,10,38,16.90
2008,07,23,10,39,16.90
2008,07,23,10,40,16.90
2008,07,23,10,41,16.90
2008,07,23,10,42,16.90
2008,07,23,10,43,16.90
2008,07,23,10,44,16.90
2008,07,23,10,45,17.00
2008,07,23,10,46,17.00
2008,07,23,10,47,17.10
2008,07,23,10,48,17.10
2008,07,23,10,49,17.10
2008,07,23,10,50,17.10
2008,07,23,10,51,17.10
2008,07,23,10,52,17.20
2008,07,23,10,53,17.20
2008,07,23,10,54,17.20
2008,07,23,10,55,17.20
2008,07,23,10,56,17.20
2008,07,23,10,57,17.20
2008,07,23,10,58,17.20
2008,07,23,10,59,17.20
2008,07,23,11,00,17.20
2008,07,23,11,01,17.20
2008,07,23,11,02,17.20
2008,07,23,11,03,17.20
2008,07,23,11,04,17.20
2008,07,23,11,05,17.20
2008,07,23,11,06,17.20
2008,07,23,11,07,17.20
2008,07,23,11,08,17.20
2008,07,23,11,09,17.20
2008,07,23,11,10,17.30
2008,07,23,11,11,17.30
2008,07,23,11,12,17.30
2008,07,23,11,13,17.40
2008,07,23,11,14,17.40
2008,07,23,11,15,17.40
2008,07,23,11,16,17.40
2008,07,23,11,17,17.40
2008,07,23,11,18,17.30
2008,07,23,11,19,17.30
2008,07,23,11,20,17.40
2008,07,23,11,21,17.40
2008,07,23,11,22,17.40
2008,07,23,11,23,17.40
2008,07,23,11,24,17.40
2008,07,23,11,25,17.40
2008,07,23,11,26,17.40
2008,07,23,11,27,17.40
2008,07,23,11,28,17.40
2008,07,23,11,29,17.40
2008,07,23,11,30,17.40
2008,07,23,11,31,17.30
2008,07,23,11,32,17.30
2008,07,23,11,33,17.40
2008,07,23,11,34,17.50
2008,07,23,11,35,17.70
2008,07,23,11,36,17.80
2008,07,23,11,37,17.90
2008,07,23,11,38,18.10
2008,07,23,11,39,18.20
2008,07,23,11,40,18.20
2008,07,23,11,41,18.30
2008,07,23,11,42,18.30
2008,07,23,11,43,18.30
2008,07,23,11,44,18.40
2008,07,23,11,45,18.40
2008,07,23,11,46,18.30
2008,07,23,11,47,18.20
2008,07,23,11,48,18.10
2008,07,23,11,49,18.00
2008,07,23,11,50,18.00
2008,07,23,11,51,18.00
2008,07,23,11,52,18.10
2008,07,23,11,53,18.10
2008,07,23,11,54,18.20
2008,07,23,11,55,18.30
2008,07,23,11,56,18.40
2008,07,23,11,57,18.50
2008,07,23,11,58,18.60
2008,07,23,11,59,18.70
2008,07,23,12,00,18.80
2008,07,23,12,01,18.80
2008,07,23,12,02,18.90
2008,07,23,12,03,18.90
2008,07,23,12,04,19.00
2008,07,23,12,05,19.10
2008,07,23,12,06,19.10
2008,07,23,12,07,19.20
2008,07,23,12,08,19.10
2008,07,23,12,09,19.00
2008,07,23,12,10,18.90
2008,07,23,12,11,18.90
2008,07,23,12,12,18.90
2008,07,23,12,13,18.70
2008,07,23,12,14,18.60
2008,07,23,12,15,18.60
2008,07,23,12,16,18.60
2008,07,23,12,17,18.60
2008,07,23,12,18,18.70
2008,07,23,12,19,18.80
2008,07,23,12,20,18.80
2008,07,23,12,21,18.80
2008,07,23,12,22,18.90
2008,07,23,12,23,18.90
2008,07,23,12,24,18.90
2008,07,23,12,25,18.90
2008,07,23,12,26,18.90
2008,07,23,12,27,18.90
2008,07,23,12,28,18.90
2008,07,23,12,29,18.80
2008,07,23,12,30,18.80
2008,07,23,12,31,18.70
2008,07,23,12,32,18.60
2008,07,23,12,33,18.50
2008,07,23,12,34,18.50
2008,07,23,12,35,18.40
2008,07,23,12,36,18.50
2008,07,23,12,37,18.60
2008,07,23,12,38,18.80
2008,07,23,12,39,18.90
2008,07,23,12,40,19.10
2008,07,23,12,41,19.20
2008,07,23,12,42,19.20
2008,07,23,12,43,19.20
2008,07,23,12,44,19.00
2008,07,23,12,45,18.80
2008,07,23,12,46,18.60
2008,07,23,12,47,18.40
2008,07,23,12,48,18.30
2008,07,23,12,49,18.20
2008,07,23,12,50,18.00
2008,07,23,12,51,17.80
2008,07,23,12,52,17.60
2008,07,23,12,53,17.40
2008,07,23,12,54,17.30
2008,07,23,12,55,17.30
2008,07,23,12,56,17.30
2008,07,23,12,57,17.40
2008,07,23,12,58,17.50
2008,07,23,12,59,17.60
2008,07,23,13,00,17.60
2008,07,23,13,01,17.70
2008,07,23,13,02,17.70
2008,07,23,13,03,17.80
2008,07,23,13,04,18.00
2008,07,23,13,05,18.10
2008,07,23,13,06,18.20
2008,07,23,13,07,18.30
2008,07,23,13,08,18.40
2008,07,23,13,09,18.50
2008,07,23,13,10,18.60
2008,07,23,13,11,18.60
2008,07,23,13,12,18.50
2008,07,23,13,13,18.40
2008,07,23,13,14,18.40
2008,07,23,13,15,18.60
2008,07,23,13,16,18.70
2008,07,23,13,17,18.80
2008,07,23,13,18,18.90
2008,07,23,13,19,18.90
2008,07,23,13,20,18.90
2008,07,23,13,21,18.80
2008,07,23,13,22,18.70
2008,07,23,13,23,18.50
2008,07,23,13,24,18.40
2008,07,23,13,25,18.30
2008,07,23,13,26,18.10
2008,07,23,13,27,17.90
2008,07,23,13,28,17.80
2008,07,23,13,29,17.70
2008,07,23,13,30,17.80
2008,07,23,13,31,17.80
2008,07,23,13,32,17.90
2008,07,23,13,33,17.90
2008,07,23,13,34,17.90
2008,07,23,13,35,17.90
2008,07,23,13,36,17.90
2008,07,23,13,37,17.90
2008,07,23,13,38,17.90
2008,07,23,13,39,17.80
2008,07,23,13,40,17.60
2008,07,23,13,41,17.40
2008,07,23,13,42,17.30
2008,07,23,13,43,17.20
2008,07,23,13,44,17.10
2008,07,23,13,45,17.10
2008,07,23,13,46,17.10
2008,07,23,13,47,17.10
2008,07,23,13,48,17.20
2008,07,23,13,49,17.20
2008,07,23,13,50,17.30
2008,07,23,13,51,17.40
2008,07,23,13,52,17.50
2008,07,23,13,53,17.50
2008,07,23,13,54,17.40
2008,07,23,13,55,17.40
2008,07,23,13,56,17.50
2008,07,23,13,57,17.60
2008,07,23,13,58,17.60
2008,07,23,13,59,17.50
2008,07,23,14,00,17.40
2008,07,23,14,01,17.30
2008,07,23,14,02,17.30
2008,07,23,14,03,17.20
2008,07,23,14,04,17.00
2008,07,23,14,05,17.00
2008,07,23,14,06,17.10
2008,07,23,14,07,17.20
2008,07,23,14,08,17.20
2008,07,23,14,09,17.10
2008,07,23,14,10,17.10
2008,07,23,14,11,17.10
2008,07,23,14,12,17.00
2008,07,23,14,13,17.00
2008,07,23,14,14,17.00
2008,07,23,14,15,17.10
2008,07,23,14,16,17.20
2008,07,23,14,17,17.30
2008,07,23,14,18,17.40
2008,07,23,14,19,17.60
2008,07,23,14,20,17.70
2008,07,23,14,21,17.90
2008,07,23,14,22,18.00
2008,07,23,14,23,18.20
2008,07,23,14,24,18.30
2008,07,23,14,25,18.50
2008,07,23,14,26,18.60
2008,07,23,14,27,18.60
2008,07,23,14,28,18.70
2008,07,23,14,29,18.70
2008,07,23,14,30,18.80
2008,07,23,14,31,18.90
2008,07,23,14,32,19.00
2008,07,23,14,33,19.20
2008,07,23,14,34,19.30
2008,07,23,14,35,19.30
2008,07,23,14,36,19.40
2008,07,23,14,37,19.40
2008,07,23,14,38,19.60
2008,07,23,14,39,19.70
2008,07,23,14,40,19.90
2008,07,23,14,41,20.00
2008,07,23,14,42,20.10
2008,07,23,14,43,20.20
2008,07,23,14,44,20.30
2008,07,23,14,45,20.50
2008,07,23,14,46,20.60
2008,07,23,14,47,20.70
2008,07,23,14,48,20.80
2008,07,23,14,49,20.70
2008,07,23,14,50,20.50
2008,07,23,14,51,20.40
2008,07,23,14,52,20.20
2008,07,23,14,53,20.10
2008,07,23,14,54,19.90
2008,07,23,14,55,19.60
2008,07,23,14,56,19.30
2008,07,23,14,57,19.10
2008,07,23,14,58,18.90
2008,07,23,14,59,18.90
2008,07,23,15,00,19.00
2008,07,23,15,01,19.10
2008,07,23,15,02,19.30
2008,07,23,15,03,19.50
2008,07,23,15,04,19.70
2008,07,23,15,05,19.80
2008,07,23,15,06,19.90
2008,07,23,15,07,19.90
2008,07,23,15,08,19.90
2008,07,23,15,09,20.00
2008,07,23,15,10,20.00
2008,07,23,15,11,20.00
2008,07,23,15,12,19.90
2008,07,23,15,13,20.00
2008,07,23,15,14,20.00
2008,07,23,15,15,19.90
2008,07,23,15,16,19.80
2008,07,23,15,17,19.60
2008,07,23,15,18,19.60
2008,07,23,15,19,19.60
2008,07,23,15,20,19.70
2008,07,23,15,21,19.70
2008,07,23,15,22,19.70
2008,07,23,15,23,19.70
2008,07,23,15,24,19.60
2008,07,23,15,25,19.60
2008,07,23,15,26,19.60
2008,07,23,15,27,19.60
2008,07,23,15,28,19.40
2008,07,23,15,29,19.40
2008,07,23,15,30,19.30
2008,07,23,15,31,19.30
2008,07,23,15,32,19.30
2008,07,23,15,33,19.20
2008,07,23,15,34,19.20
2008,07,23,15,35,19.20
2008,07,23,15,36,19.20
2008,07,23,15,37,19.20
2008,07,23,15,38,19.20
2008,07,23,15,39,19.20
2008,07,23,15,40,19.20
2008,07,23,15,41,19.20
2008,07,23,15,42,19.30
2008,07,23,15,43,19.30
2008,07,23,15,44,19.30
2008,07,23,15,45,19.30
2008,07,23,15,46,19.30
2008,07,23,15,47,19.30
2008,07,23,15,48,19.40
2008,07,23,15,49,19.40
2008,07,23,15,50,19.50
2008,07,23,15,51,19.50
2008,07,23,15,52,19.40
2008,07,23,15,53,19.30
2008,07,23,15,54,19.20
2008,07,23,15,55,19.20
2008,07,23,15,56,19.10
2008,07,23,15,57,19.10
2008,07,23,15,58,19.10
2008,07,23,15,59,19.10
2008,07,23,16,00,19.20
2008,07,23,16,01,19.30
2008,07,23,16,02,19.30
2008,07,23,16,03,19.20
2008,07,23,16,04,19.20
2008,07,23,16,05,19.00
2008,07,23,16,06,18.90
2008,07,23,16,07,18.80
2008,07,23,16,08,18.80
2008,07,23,16,09,18.80
2008,07,23,16,10,18.80
2008,07,23,16,11,18.80
2008,07,23,16,12,19.00
2008,07,23,16,13,19.00
2008,07,23,16,14,19.10
2008,07,23,16,15,19.20
2008,07,23,16,16,19.30
2008,07,23,16,17,19.40
2008,07,23,16,18,19.50
2008,07,23,16,19,19.50
2008,07,23,16,20,19.40
2008,07,23,16,21,19.30
2008,07,23,16,22,19.10
2008,07,23,16,23,19.00
2008,07,23,16,24,18.90
2008,07,23,16,25,18.90
2008,07,23,16,26,18.90
2008,07,23,16,27,19.00
2008,07,23,16,28,19.00
2008,07,23,16,29,18.90
2008,07,23,16,30,18.90
2008,07,23,16,31,18.90
2008,07,23,16,32,18.80
2008,07,23,16,33,18.80
2008,07,23,16,34,18.80
2008,07,23,16,35,18.80
2008,07,23,16,36,18.90
2008,07,23,16,37,18.80
2008,07,23,16,38,18.70
2008,07,23,16,39,18.60
2008,07,23,16,40,18.70
2008,07,23,16,41,18.80
2008,07,23,16,42,18.90
2008,07,23,16,43,19.10
2008,07,23,16,44,19.20
2008,07,23,16,45,19.30
2008,07,23,16,46,19.50
2008,07,23,16,47,19.60
2008,07,23,16,48,19.50
2008,07,23,16,49,19.40
2008,07,23,16,50,19.20
2008,07,23,16,51,19.00
2008,07,23,16,52,18.80
2008,07,23,16,53,18.70
2008,07,23,16,54,18.60
2008,07,23,16,55,18.50
2008,07,23,16,56,18.40
2008,07,23,16,57,18.20
2008,07,23,16,58,18.10
2008,07,23,16,59,18.00
2008,07,23,17,00,18.00
2008,07,23,17,01,17.90
2008,07,23,17,02,17.90
2008,07,23,17,03,18.00
2008,07,23,17,04,18.00
2008,07,23,17,05,18.10
2008,07,23,17,06,18.10
2008,07,23,17,07,18.20
2008,07,23,17,08,18.20
2008,07,23,17,09,18.30
2008,07,23,17,10,18.30
2008,07,23,17,11,18.40
2008,07,23,17,12,18.40
2008,07,23,17,13,18.50
2008,07,23,17,14,18.60
2008,07,23,17,15,18.60
2008,07,23,17,16,18.70
2008,07,23,17,17,18.70
2008,07,23,17,18,18.80
2008,07,23,17,19,18.80